[[{"header":{"parameterUnit":"m.s-1","parameterCategory":1,"la1":30.2991,"la2":30.254,"lo1":-89.0895,"lo2":-89.0444,"dy":0.0017,"dx":0.0017,"nx":28,"ny":28,"refTime":"2024-06-10T09:00:00:Z","depth":0,"parameterNumber":2,"parameterNumberName":"U-component_of_WINDS"},"data":[0,0,0,0,0,0,0,0,0,0,0,0,0,0,0,0,0,0,0,0,0,0,0,0,0,0,0,0,0,0,0,0,0,0,0,0,0,0,0,0,0,0,0,0,0,0,0,0,0,0,0,0,0,0,0,0,0,0,3.6251,3.6252,0,3.6356,3.6357,3.6358,3.6354,3.6353,3.6351,3.635,3.6461,3.6465,3.6469,0,0,0,0,0,0,0,0,0,0,0,0,0,3.6049,3.6053,3.625,3.6252,3.6253,3.6356,3.6357,3.6359,3.6354,3.6353,3.6351,3.6349,3.6459,3.6464,3.647,0,0,0,0,0,0,0,0,0,0,0,0,0,3.6144,3.6054,3.625,3.6263,3.6265,3.6356,3.6357,3.6359,3.6355,3.6353,3.635,3.6348,3.6458,3.6464,3.647,3.6555,0,0,3.649,3.6493,0,0,0,0,0,0,0,0,3.6139,3.6151,3.626,3.6263,3.6265,3.634,3.6327,3.6425,3.6355,3.6321,3.635,3.6347,3.6422,3.6432,3.6456,3.656,3.6565,3.6491,3.6495,3.6497,3.6499,0,0,0,0,0,0,0,3.6132,3.6147,3.6292,3.6262,3.6265,3.6265,3.6276,3.6346,3.6383,3.6324,3.6324,3.6336,3.6423,3.645,3.6459,3.6567,3.6491,3.6496,3.65,3.6503,3.6749,3.6751,0,0,0,0,0,0,3.6122,3.6141,3.6289,3.6295,3.6195,3.6271,3.6283,3.6318,3.6382,3.639,3.6338,3.6336,3.644,3.6451,3.6463,3.6568,3.6497,3.6503,3.6507,3.6746,3.6749,3.6752,0,0,0,0,0,0,3.6118,3.6135,3.6285,3.6219,3.6238,3.6277,3.6316,3.6321,3.6348,3.6393,3.64,3.6358,3.6439,3.6454,3.6533,3.6572,3.6506,3.6512,3.6743,3.6747,3.6751,3.6778,0,0,0,0,0,0,3.6112,3.6134,3.6165,3.6219,3.6241,3.6351,3.6318,3.6325,3.6359,3.6357,3.6414,3.6421,3.6438,3.6523,3.6539,3.658,3.6517,3.6739,3.6745,3.6749,3.6774,3.6782,3.679,0,0,0,0,0,3.6105,3.6169,3.6167,3.6185,3.6281,3.6354,3.6366,3.6384,3.6362,3.6395,3.6424,3.6419,3.6565,3.6531,3.6549,3.6592,3.6737,3.6743,3.6749,3.677,3.6781,3.679,0,0,0,0,0,0,3.6119,3.6176,3.6175,3.6257,3.6301,3.6353,3.6394,3.6394,3.6445,3.6441,3.6462,3.6475,3.6554,3.6581,3.6542,3.6679,3.6648,3.6658,3.6659,3.6669,3.6677,3.6669,3.6523,0,0,0,0,0,3.6131,3.6184,3.6232,3.6301,3.6323,3.6355,3.6387,3.6397,3.6443,3.6462,3.6497,3.6542,3.6599,3.6635,3.6689,3.6778,3.6791,3.6817,3.6825,3.6831,3.6839,3.6891,3.6903,3.6771,3.6771,3.6771,0,0,3.6158,3.6196,3.6228,3.6305,3.6339,3.6395,3.637,3.643,3.6472,3.6471,3.6548,3.6575,3.6628,3.6713,3.6752,3.6738,3.6879,3.6839,3.6843,3.6848,3.6898,3.691,3.6922,3.6775,3.6775,3.6774,0,0,3.6236,3.6269,3.6331,3.6366,3.6419,3.6441,3.6456,3.6508,3.6527,3.6604,3.6605,3.6656,3.6752,3.679,3.6822,3.6917,3.6915,3.6934,3.6976,3.7026,3.7036,3.7046,3.7081,3.7093,3.6942,3.6943,3.6943,0,3.6262,3.6345,3.6363,3.6424,3.6458,3.6459,3.6523,3.6557,3.6626,3.665,3.6633,3.6755,3.6791,3.6885,3.6909,3.6934,3.6953,3.6928,3.7033,3.7043,3.7052,3.7086,3.7099,3.6945,3.6944,3.6944,3.6944,0,3.6377,3.6435,3.6479,3.6544,3.6584,3.6646,3.6674,3.6713,3.672,3.6744,3.6824,3.6867,3.6931,3.6954,3.6962,3.7051,3.7041,3.7028,3.6998,3.7066,3.7098,3.7111,3.6947,3.6947,3.6946,3.6946,0,0,3.6464,3.654,3.6556,3.6587,3.6647,3.6693,3.6756,3.6818,3.6851,3.6899,3.6954,3.7036,3.7026,3.7062,3.7075,3.7118,3.7193,3.7101,3.7102,3.7117,3.7296,3.7305,3.732,3.7192,3.7194,3.7197,3.7292,0,3.6549,3.666,3.6678,3.6776,3.6832,3.6835,3.6891,3.6934,3.6959,3.701,3.7038,3.7097,3.7078,3.71,3.7143,3.7174,3.7229,3.7168,3.7245,3.7247,3.7232,3.7337,3.7346,3.7434,3.7305,3.7307,3.7308,0,3.6662,3.6713,3.6816,3.687,3.6894,3.6943,3.7003,3.7052,3.7102,3.7118,3.7159,3.7167,3.7235,3.7202,3.7297,3.7255,3.7288,3.7308,3.7312,3.732,3.7282,3.7349,3.7462,3.7476,3.7328,3.7326,3.7325,0,3.6717,3.6811,3.6886,3.6912,3.6977,3.7012,3.7041,3.7089,3.7126,3.7179,3.7203,3.7263,3.7297,3.7344,3.7369,3.7342,3.7463,3.7431,3.7479,3.7478,3.7504,3.7502,3.7625,3.7524,3.7524,3.7524,3.7523,0,3.681,3.6873,3.6912,3.6958,3.703,3.7052,3.7123,3.7152,3.7195,3.7248,3.7255,3.7305,3.7334,3.7389,3.7409,3.7485,3.75,3.7515,3.752,3.7515,3.7513,3.7537,3.7532,3.7527,3.7526,3.7526,3.7525,0,3.6883,3.6912,3.6994,3.7049,3.7064,3.7115,3.7163,3.7209,3.7234,3.7301,3.7318,3.7358,3.7423,3.7453,3.7533,3.7546,3.7634,3.7634,3.7617,3.7619,3.7665,3.7661,3.7809,3.783,3.7714,3.7715,3.7716,0,3.6941,3.699,3.7051,3.7086,3.7116,3.7174,3.7212,3.7236,3.7275,3.7338,3.7377,3.7442,3.7495,3.7599,3.7636,3.7699,3.7701,3.7748,3.771,3.7704,3.7703,3.77,3.7706,3.7755,3.7756,3.7757,3.7758,0,3.7041,3.7053,3.7106,3.7166,3.7211,3.726,3.7307,3.7336,3.7368,3.7413,3.7479,3.7521,3.7603,3.7669,3.7733,3.7765,3.7768,3.777,3.7785,3.778,3.7769,3.7777,3.7637,3.7766,3.7766,3.7765,3.7765,3.7764,3.7109,3.7153,3.7204,3.7264,3.7303,3.7347,3.7394,3.7425,3.748,3.7549,3.756,3.7632,3.7684,3.7771,3.7805,3.7862,3.7851,3.7872,3.7877,3.7882,3.7885,3.7759,3.7874,3.7874,3.7874,3.7874,3.7873,0,3.721,3.7243,3.7298,3.7365,3.7413,3.7411,3.7464,3.7505,3.7567,3.7615,3.7668,3.7745,3.7809,3.7852,3.7917,3.7955,3.7958,3.7971,3.7969,3.7977,3.7891,3.7872,3.7968,3.7968,3.7968,3.7968,3.7968,3.7968,3.7268,3.7344,3.7362,3.7458,3.7491,3.756,3.7591,3.7633,3.7672,3.7758,3.7811,3.7838,3.7885,3.7954,3.8013,3.8024,3.8049,3.8062,3.8073,3.7992,3.7983,3.7973,3.7956,3.8067,3.8067,3.8155,3.8155,3.8156]},{"header":{"parameterUnit":"m.s-1","parameterCategory":1,"la1":30.2991,"la2":30.254,"lo1":-89.0895,"lo2":-89.0444,"dy":0.0017,"dx":0.0017,"nx":28,"ny":28,"refTime":"2024-06-10T09:00:00:Z","depth":0,"parameterNumber":3,"parameterNumberName":"V-component_of_WINDS"},"data":[0,0,0,0,0,0,0,0,0,0,0,0,0,0,0,0,0,0,0,0,0,0,0,0,0,0,0,0,0,0,0,0,0,0,0,0,0,0,0,0,0,0,0,0,0,0,0,0,0,0,0,0,0,0,0,0,0,0,-1.6281,-1.628,0,-1.6235,-1.6234,-1.6234,-1.6231,-1.6232,-1.6233,-1.6233,-1.6181,-1.6179,-1.6177,0,0,0,0,0,0,0,0,0,0,0,0,0,-1.6362,-1.6361,-1.6281,-1.628,-1.6279,-1.6235,-1.6234,-1.6234,-1.6231,-1.6232,-1.6233,-1.6233,-1.6181,-1.6179,-1.6177,0,0,0,0,0,0,0,0,0,0,0,0,0,-1.6323,-1.636,-1.6281,-1.6273,-1.6272,-1.6235,-1.6234,-1.6234,-1.6231,-1.6232,-1.6233,-1.6234,-1.6182,-1.6179,-1.6177,-1.6143,0,0,-1.6168,-1.6167,0,0,0,0,0,0,0,0,-1.6325,-1.6319,-1.6275,-1.6274,-1.6272,-1.624,-1.6244,-1.6203,-1.6231,-1.6247,-1.6233,-1.6234,-1.6199,-1.6195,-1.6185,-1.614,-1.6138,-1.6168,-1.6166,-1.6165,-1.6164,0,0,0,0,0,0,0,-1.6328,-1.6321,-1.6262,-1.6274,-1.6273,-1.6271,-1.6266,-1.6236,-1.6219,-1.6245,-1.6245,-1.624,-1.6199,-1.6187,-1.6183,-1.6137,-1.6168,-1.6165,-1.6163,-1.6162,-1.6065,-1.6064,0,0,0,0,0,0,-1.6332,-1.6324,-1.6264,-1.6261,-1.6301,-1.6269,-1.6263,-1.6249,-1.6219,-1.6215,-1.6239,-1.624,-1.6192,-1.6187,-1.6182,-1.6141,-1.6165,-1.6162,-1.616,-1.6065,-1.6064,-1.6063,0,0,0,0,0,0,-1.6334,-1.6327,-1.6266,-1.6292,-1.6284,-1.6266,-1.6251,-1.6248,-1.6237,-1.6215,-1.6211,-1.6231,-1.6192,-1.6186,-1.6153,-1.6139,-1.6161,-1.6158,-1.6066,-1.6065,-1.6064,-1.606,0,0,0,0,0,0,-1.6337,-1.6328,-1.6315,-1.6292,-1.6283,-1.6239,-1.625,-1.6246,-1.6232,-1.6233,-1.6206,-1.6202,-1.6192,-1.6158,-1.615,-1.6136,-1.6156,-1.6068,-1.6066,-1.6064,-1.6061,-1.6058,-1.6056,0,0,0,0,0,-1.6339,-1.6314,-1.6315,-1.6307,-1.6267,-1.6238,-1.6233,-1.6224,-1.6231,-1.6218,-1.6205,-1.6203,-1.6142,-1.6154,-1.6146,-1.6131,-1.6068,-1.6066,-1.6064,-1.6062,-1.6059,-1.6056,0,0,0,0,0,0,-1.6333,-1.6311,-1.6311,-1.6278,-1.6261,-1.6238,-1.6221,-1.622,-1.6199,-1.62,-1.6188,-1.6182,-1.615,-1.6137,-1.6151,-1.6097,-1.6106,-1.6102,-1.6107,-1.6104,-1.6101,-1.6105,-1.6154,0,0,0,0,0,-1.6329,-1.6309,-1.6289,-1.6262,-1.6253,-1.6239,-1.6226,-1.6221,-1.6201,-1.6193,-1.6177,-1.6156,-1.6133,-1.6118,-1.6094,-1.6059,-1.6054,-1.6045,-1.6042,-1.604,-1.6037,-1.6019,-1.6015,-1.6057,-1.6057,-1.6057,0,0,-1.6318,-1.6303,-1.6291,-1.626,-1.6246,-1.6225,-1.6232,-1.6209,-1.6192,-1.6189,-1.6158,-1.6146,-1.6122,-1.6089,-1.6073,-1.6077,-1.6025,-1.6038,-1.6037,-1.6034,-1.6017,-1.6013,-1.6009,-1.6056,-1.6056,-1.6056,0,0,-1.6288,-1.6274,-1.6251,-1.6237,-1.6217,-1.6208,-1.6202,-1.6181,-1.6173,-1.6143,-1.614,-1.612,-1.6079,-1.6063,-1.605,-1.6017,-1.6015,-1.6009,-1.5996,-1.5979,-1.5976,-1.5973,-1.5962,-1.5958,-1.6006,-1.6006,-1.6006,0,-1.6276,-1.6245,-1.6238,-1.6216,-1.6203,-1.6201,-1.6178,-1.6164,-1.6136,-1.6127,-1.6132,-1.6083,-1.6066,-1.603,-1.6023,-1.6012,-1.6005,-1.6012,-1.5977,-1.5974,-1.5971,-1.5961,-1.5957,-1.6006,-1.6006,-1.6006,-1.6006,0,-1.6233,-1.6212,-1.6195,-1.6171,-1.6156,-1.6133,-1.6122,-1.6108,-1.6104,-1.6095,-1.6064,-1.6046,-1.602,-1.6011,-1.6006,-1.5974,-1.5978,-1.598,-1.5989,-1.5967,-1.5957,-1.5953,-1.6005,-1.6005,-1.6005,-1.6005,0,0,-1.6196,-1.6171,-1.6165,-1.6155,-1.6134,-1.6116,-1.6093,-1.607,-1.6059,-1.604,-1.602,-1.5987,-1.599,-1.5975,-1.5969,-1.5954,-1.593,-1.5958,-1.5957,-1.5954,-1.5895,-1.5894,-1.589,-1.5929,-1.5928,-1.5928,-1.5898,0,-1.6164,-1.6125,-1.612,-1.6085,-1.6066,-1.6065,-1.6045,-1.6029,-1.602,-1.6001,-1.599,-1.5968,-1.5973,-1.5964,-1.5949,-1.5936,-1.5918,-1.5938,-1.591,-1.5909,-1.5917,-1.5884,-1.5882,-1.5855,-1.5894,-1.5893,-1.5893,0,-1.6121,-1.6105,-1.6069,-1.6052,-1.6044,-1.6026,-1.6006,-1.5988,-1.597,-1.5965,-1.5949,-1.5945,-1.5921,-1.5931,-1.5898,-1.5912,-1.59,-1.5892,-1.5891,-1.5888,-1.59,-1.5881,-1.5846,-1.5842,-1.5886,-1.5887,-1.5887,0,-1.61,-1.6068,-1.6043,-1.6034,-1.6013,-1.6001,-1.5992,-1.5975,-1.5962,-1.5944,-1.5936,-1.5914,-1.5902,-1.5885,-1.5875,-1.5883,-1.5843,-1.5852,-1.5837,-1.5838,-1.5829,-1.5829,-1.5792,-1.582,-1.582,-1.582,-1.5821,0,-1.6065,-1.6043,-1.6033,-1.6018,-1.5994,-1.5987,-1.5963,-1.5954,-1.5939,-1.5922,-1.5919,-1.5902,-1.589,-1.5871,-1.5863,-1.5837,-1.5831,-1.5826,-1.5824,-1.5827,-1.5828,-1.5819,-1.5821,-1.5819,-1.582,-1.582,-1.582,0,-1.6037,-1.6029,-1.6002,-1.5986,-1.5981,-1.5964,-1.595,-1.5935,-1.5927,-1.5904,-1.5898,-1.5885,-1.5863,-1.5852,-1.5824,-1.5819,-1.579,-1.5789,-1.5797,-1.5796,-1.5783,-1.5784,-1.5738,-1.5732,-1.5764,-1.5764,-1.5764,0,-1.6015,-1.5999,-1.5982,-1.5971,-1.5962,-1.5944,-1.5932,-1.5925,-1.5913,-1.5893,-1.588,-1.5859,-1.5841,-1.5806,-1.5793,-1.5772,-1.5771,-1.5756,-1.5767,-1.5771,-1.5772,-1.5773,-1.5772,-1.5754,-1.5754,-1.5754,-1.5753,0,-1.5978,-1.5976,-1.596,-1.5943,-1.5929,-1.5915,-1.5901,-1.5891,-1.5882,-1.5868,-1.5847,-1.5834,-1.5807,-1.5786,-1.5765,-1.5753,-1.5752,-1.575,-1.5746,-1.5748,-1.5754,-1.5752,-1.5792,-1.5751,-1.5751,-1.5751,-1.5752,-1.5752,-1.5953,-1.594,-1.5927,-1.5909,-1.5898,-1.5886,-1.5871,-1.5863,-1.5846,-1.5825,-1.5821,-1.5799,-1.5783,-1.5755,-1.5743,-1.5725,-1.5728,-1.5722,-1.572,-1.5719,-1.5719,-1.5757,-1.5721,-1.5721,-1.5721,-1.5721,-1.5721,0,-1.5917,-1.591,-1.5894,-1.5875,-1.5862,-1.5864,-1.5849,-1.5837,-1.5818,-1.5804,-1.5788,-1.5765,-1.5745,-1.5731,-1.5711,-1.5699,-1.5698,-1.5694,-1.5695,-1.5693,-1.5717,-1.5723,-1.5696,-1.5696,-1.5696,-1.5696,-1.5696,-1.5696,-1.5897,-1.5875,-1.5871,-1.5844,-1.5836,-1.5816,-1.5807,-1.5796,-1.5785,-1.576,-1.5744,-1.5736,-1.5722,-1.5702,-1.5684,-1.568,-1.5673,-1.5669,-1.5666,-1.5688,-1.5691,-1.5693,-1.5699,-1.5668,-1.5667,-1.5643,-1.5643,-1.5643]}]]